[[{"header":{"parameterUnit":"m.s-1","parameterCategory":1,"la1":30.2991,"la2":30.254,"lo1":-89.0895,"lo2":-89.0444,"dy":0.0017,"dx":0.0017,"nx":28,"ny":28,"refTime":"2023-10-03T09:00:00:Z","depth":0,"parameterNumber":2,"parameterNumberName":"U-component_of_WINDS"},"data":[0,0,0,0,0,0,0,0,0,0,0,0,0,0,0,0,0,0,0,0,0,0,0,0,0,0,0,0,0,0,0,0,0,0,0,0,0,0,0,0,0,0,0,0,0,0,0,0,0,0,0,0,0,0,0,0,0,0,-6.1203,-6.1203,0,-6.1254,-6.1254,-6.1255,-6.1116,-6.1112,-6.1107,-6.1103,-6.1156,-6.1161,-6.1166,0,0,0,0,0,0,0,0,0,0,0,0,0,-6.0987,-6.0992,-6.1203,-6.1203,-6.1204,-6.1253,-6.1254,-6.1255,-6.1117,-6.1112,-6.1106,-6.1101,-6.1154,-6.116,-6.1167,0,0,0,0,0,0,0,0,0,0,0,0,0,-6.1064,-6.0994,-6.1203,-6.1141,-6.1136,-6.1253,-6.1254,-6.1255,-6.1118,-6.1111,-6.1105,-6.1099,-6.1152,-6.116,-6.1168,-6.1347,0,0,-6.1192,-6.1196,0,0,0,0,0,0,0,0,-6.106,-6.1072,-6.115,-6.1146,-6.114,-6.1172,-6.1197,-6.1286,-6.112,-6.1125,-6.1103,-6.1096,-6.1166,-6.1173,-6.1197,-6.1349,-6.1352,-6.1193,-6.1198,-6.1202,-6.1204,0,0,0,0,0,0,0,-6.1055,-6.1069,-6.1223,-6.1151,-6.1145,-6.1111,-6.1115,-6.1213,-6.1181,-6.1124,-6.1114,-6.1122,-6.1163,-6.1189,-6.1197,-6.1352,-6.1193,-6.12,-6.1205,-6.1208,-6.1656,-6.1663,0,0,0,0,0,0,-6.1057,-6.1066,-6.1221,-6.1224,-6.1083,-6.112,-6.1125,-6.1168,-6.118,-6.1175,-6.1127,-6.1115,-6.1178,-6.1187,-6.1198,-6.1409,-6.1202,-6.1209,-6.1214,-6.1649,-6.1658,-6.1665,0,0,0,0,0,0,-6.1053,-6.1072,-6.1219,-6.1142,-6.1158,-6.1131,-6.1181,-6.1173,-6.1199,-6.1182,-6.1176,-6.116,-6.1174,-6.1187,-6.1311,-6.1409,-6.1213,-6.122,-6.1641,-6.1652,-6.1662,-6.1834,0,0,0,0,0,0,-6.1048,-6.1072,-6.1139,-6.1145,-6.1163,-6.1332,-6.1187,-6.1178,-6.1213,-6.1198,-6.1212,-6.1208,-6.117,-6.13,-6.1319,-6.1417,-6.1226,-6.1632,-6.1646,-6.1658,-6.1819,-6.1849,-6.1874,0,0,0,0,0,-6.104,-6.1185,-6.1143,-6.1163,-6.1247,-6.1337,-6.1348,-6.1301,-6.1222,-6.129,-6.1279,-6.1207,-6.1396,-6.1314,-6.1334,-6.1436,-6.1626,-6.1642,-6.1657,-6.1807,-6.1843,-6.1873,0,0,0,0,0,0,-6.1191,-6.1185,-6.1138,-6.1289,-6.1315,-6.1314,-6.1398,-6.1341,-6.1389,-6.1373,-6.1313,-6.1317,-6.1454,-6.1457,-6.1366,-6.1611,-6.1497,-6.1518,-6.1604,-6.1638,-6.1665,-6.1661,-6.1233,0,0,0,0,0,-6.1242,-6.1316,-6.1306,-6.1441,-6.1456,-6.1426,-6.1463,-6.1425,-6.1449,-6.146,-6.1458,-6.1485,-6.155,-6.1594,-6.1653,-6.1819,-6.1821,-6.1899,-6.1927,-6.1949,-6.1968,-6.2058,-6.2093,-6.1718,-6.1717,-6.1717,0,0,-6.1348,-6.1354,-6.1404,-6.1471,-6.1487,-6.1566,-6.1435,-6.1523,-6.1581,-6.1473,-6.159,-6.1591,-6.1617,-6.1764,-6.1828,-6.1771,-6.2072,-6.197,-6.1988,-6.1994,-6.2078,-6.2113,-6.2145,-6.1728,-6.1726,-6.1725,0,0,-6.1581,-6.1593,-6.1706,-6.1725,-6.175,-6.1729,-6.1757,-6.1765,-6.1761,-6.1878,-6.1799,-6.1867,-6.198,-6.2003,-6.2029,-6.2273,-6.2209,-6.2294,-6.2438,-6.2526,-6.2555,-6.2581,-6.2669,-6.2702,-6.2312,-6.2313,-6.2313,0,-6.1709,-6.1824,-6.1772,-6.1866,-6.1899,-6.1805,-6.192,-6.194,-6.1984,-6.2009,-6.1944,-6.2086,-6.2096,-6.2247,-6.2307,-6.2331,-6.2362,-6.2292,-6.2555,-6.2581,-6.2604,-6.2688,-6.2721,-6.2323,-6.2322,-6.2321,-6.232,0,-6.1981,-6.2062,-6.2151,-6.2197,-6.2239,-6.2344,-6.2308,-6.2357,-6.2316,-6.2302,-6.2424,-6.2434,-6.2494,-6.2527,-6.2487,-6.2673,-6.2637,-6.2565,-6.2449,-6.2651,-6.2728,-6.276,-6.2338,-6.2334,-6.2331,-6.2328,0,0,-6.2309,-6.2326,-6.2359,-6.2379,-6.2401,-6.2463,-6.2564,-6.2623,-6.2668,-6.2701,-6.2785,-6.2884,-6.2818,-6.2848,-6.281,-6.2888,-6.3082,-6.2806,-6.2805,-6.2858,-6.3289,-6.3344,-6.3381,-6.304,-6.3046,-6.305,-6.3287,0,-6.254,-6.2712,-6.2669,-6.2841,-6.2916,-6.2829,-6.2917,-6.2941,-6.2931,-6.2994,-6.2983,-6.3054,-6.2961,-6.2979,-6.3052,-6.3043,-6.3168,-6.3025,-6.3118,-6.3122,-6.3114,-6.3421,-6.3479,-6.3702,-6.3317,-6.3322,-6.3326,0,-6.2831,-6.2877,-6.3057,-6.3068,-6.3098,-6.3178,-6.3229,-6.329,-6.3316,-6.3304,-6.3339,-6.3286,-6.3387,-6.3271,-6.3409,-6.3313,-6.3349,-6.3351,-6.3358,-6.3365,-6.3236,-6.3437,-6.3771,-6.3805,-6.3373,-6.3369,-6.3366,0,-6.3053,-6.316,-6.3282,-6.3302,-6.3318,-6.3376,-6.3386,-6.3405,-6.3444,-6.3489,-6.3514,-6.3571,-6.3602,-6.3648,-6.3612,-6.3531,-6.3757,-6.3638,-6.375,-6.3752,-6.3801,-6.3799,-6.4147,-6.3825,-6.3824,-6.3823,-6.3823,0,-6.3315,-6.3429,-6.3382,-6.3457,-6.3582,-6.3532,-6.3657,-6.3657,-6.3675,-6.3749,-6.3677,-6.3748,-6.3697,-6.3764,-6.3737,-6.3857,-6.3871,-6.3864,-6.3856,-6.3871,-6.3872,-6.3893,-6.3877,-6.3832,-6.383,-6.3829,-6.3827,0,-6.3584,-6.3557,-6.3684,-6.369,-6.3694,-6.3787,-6.3791,-6.3862,-6.3847,-6.3942,-6.3961,-6.3939,-6.4014,-6.3984,-6.4063,-6.4045,-6.4198,-6.4169,-6.419,-6.4183,-6.4297,-6.4287,-6.4671,-6.4719,-6.4366,-6.4369,-6.4372,0,-6.3753,-6.3838,-6.3854,-6.3898,-6.3913,-6.3986,-6.4025,-6.398,-6.4024,-6.4061,-6.4128,-6.4197,-6.4249,-6.4374,-6.4365,-6.4426,-6.4398,-6.4529,-6.4407,-6.442,-6.4401,-6.4397,-6.4406,-6.4553,-6.4557,-6.4561,-6.4563,0,-6.4056,-6.4039,-6.4098,-6.4155,-6.4205,-6.4247,-6.4283,-6.4324,-6.428,-6.4334,-6.441,-6.4452,-6.4534,-6.4604,-6.4658,-6.4668,-6.461,-6.4602,-6.4631,-6.4648,-6.4657,-6.4654,-6.4257,-6.4593,-6.459,-6.4588,-6.4587,-6.4585,-6.428,-6.4352,-6.4375,-6.4445,-6.4468,-6.4503,-6.457,-6.4565,-6.4627,-6.4691,-6.466,-6.475,-6.4775,-6.4842,-6.4861,-6.493,-6.4879,-6.4922,-6.4932,-6.4944,-6.4959,-6.4646,-6.494,-6.4939,-6.4938,-6.4937,-6.4937,0,-6.4579,-6.459,-6.4655,-6.4708,-6.4764,-6.4704,-6.4741,-6.4791,-6.4871,-6.4899,-6.4953,-6.5042,-6.511,-6.5108,-6.5171,-6.5228,-6.5203,-6.5246,-6.5241,-6.5245,-6.5,-6.4969,-6.5265,-6.5265,-6.5265,-6.5265,-6.5265,-6.5265,-6.4741,-6.4861,-6.4848,-6.4979,-6.4989,-6.5076,-6.5102,-6.5135,-6.5158,-6.5261,-6.5317,-6.5315,-6.5332,-6.5396,-6.5456,-6.5454,-6.5481,-6.5535,-6.5523,-6.5294,-6.5262,-6.5231,-6.5201,-6.5541,-6.5541,-6.5761,-6.5763,-6.5765]},{"header":{"parameterUnit":"m.s-1","parameterCategory":1,"la1":30.2991,"la2":30.254,"lo1":-89.0895,"lo2":-89.0444,"dy":0.0017,"dx":0.0017,"nx":28,"ny":28,"refTime":"2023-10-03T09:00:00:Z","depth":0,"parameterNumber":3,"parameterNumberName":"V-component_of_WINDS"},"data":[0,0,0,0,0,0,0,0,0,0,0,0,0,0,0,0,0,0,0,0,0,0,0,0,0,0,0,0,0,0,0,0,0,0,0,0,0,0,0,0,0,0,0,0,0,0,0,0,0,0,0,0,0,0,0,0,0,0,-0.8918,-0.8917,0,-0.8818,-0.8817,-0.8816,-0.8754,-0.8754,-0.8753,-0.8753,-0.8648,-0.8646,-0.8643,0,0,0,0,0,0,0,0,0,0,0,0,0,-0.9051,-0.9049,-0.8918,-0.8917,-0.8916,-0.8818,-0.8817,-0.8815,-0.8754,-0.8753,-0.8753,-0.8753,-0.8649,-0.8646,-0.8643,0,0,0,0,0,0,0,0,0,0,0,0,0,-0.8977,-0.9048,-0.8918,-0.8873,-0.8868,-0.8818,-0.8817,-0.8815,-0.8754,-0.8753,-0.8753,-0.8753,-0.865,-0.8646,-0.8643,-0.863,0,0,-0.8631,-0.863,0,0,0,0,0,0,0,0,-0.8981,-0.8972,-0.8881,-0.8876,-0.8871,-0.8798,-0.8825,-0.8753,-0.8754,-0.8797,-0.8753,-0.8752,-0.8698,-0.8691,-0.8673,-0.8625,-0.862,-0.8631,-0.8629,-0.8627,-0.8626,0,0,0,0,0,0,0,-0.8986,-0.8976,-0.8878,-0.888,-0.8873,-0.8856,-0.8845,-0.8811,-0.8752,-0.8793,-0.8789,-0.8778,-0.8695,-0.8677,-0.867,-0.8619,-0.8631,-0.8628,-0.8626,-0.8624,-0.855,-0.855,0,0,0,0,0,0,-0.8999,-0.898,-0.8882,-0.8875,-0.8926,-0.8854,-0.8842,-0.8822,-0.8752,-0.8741,-0.8778,-0.8775,-0.8683,-0.8674,-0.8666,-0.8643,-0.8627,-0.8624,-0.8622,-0.855,-0.855,-0.855,0,0,0,0,0,0,-0.9002,-0.8991,-0.8886,-0.8926,-0.8912,-0.8853,-0.883,-0.882,-0.8801,-0.8741,-0.8729,-0.8771,-0.8682,-0.8671,-0.8638,-0.8639,-0.8622,-0.8619,-0.8549,-0.855,-0.855,-0.86,0,0,0,0,0,0,-0.9006,-0.8992,-0.8988,-0.8927,-0.891,-0.8861,-0.8831,-0.8818,-0.8795,-0.879,-0.873,-0.872,-0.8681,-0.8644,-0.8635,-0.8634,-0.8616,-0.8549,-0.8549,-0.855,-0.8598,-0.8602,-0.8605,0,0,0,0,0,-0.9011,-0.9006,-0.8988,-0.8977,-0.8904,-0.8862,-0.8852,-0.8808,-0.8796,-0.879,-0.875,-0.8722,-0.864,-0.8641,-0.863,-0.8628,-0.8549,-0.8549,-0.855,-0.8596,-0.8601,-0.8605,0,0,0,0,0,0,-0.9069,-0.8998,-0.8977,-0.8953,-0.8914,-0.8851,-0.8843,-0.8815,-0.8779,-0.8776,-0.8722,-0.8709,-0.8681,-0.8651,-0.8653,-0.8609,-0.8591,-0.8589,-0.863,-0.8634,-0.8638,-0.8646,-0.8613,0,0,0,0,0,-0.9079,-0.9052,-0.8991,-0.8975,-0.8957,-0.8903,-0.8883,-0.8853,-0.881,-0.8793,-0.8751,-0.871,-0.8674,-0.8653,-0.8617,-0.8593,-0.8577,-0.8585,-0.8589,-0.8592,-0.8592,-0.8573,-0.8575,-0.8552,-0.8552,-0.8552,0,0,-0.91,-0.9057,-0.9044,-0.8986,-0.8952,-0.8923,-0.889,-0.8862,-0.8839,-0.8789,-0.8755,-0.8722,-0.8672,-0.8643,-0.8627,-0.8617,-0.8594,-0.8593,-0.8596,-0.8594,-0.8574,-0.8576,-0.8578,-0.8552,-0.8552,-0.8552,0,0,-0.9123,-0.9089,-0.907,-0.9037,-0.8986,-0.895,-0.8945,-0.8886,-0.8863,-0.8827,-0.8788,-0.8759,-0.8701,-0.8666,-0.864,-0.8645,-0.8617,-0.8635,-0.8655,-0.8637,-0.8639,-0.8641,-0.864,-0.8641,-0.8634,-0.8635,-0.8635,0,-0.9154,-0.9111,-0.9065,-0.9038,-0.9012,-0.8964,-0.8944,-0.8913,-0.8853,-0.8836,-0.8824,-0.8747,-0.8711,-0.8671,-0.8672,-0.8653,-0.8644,-0.8642,-0.8643,-0.8644,-0.8644,-0.8643,-0.8644,-0.8637,-0.8637,-0.8636,-0.8636,0,-0.9151,-0.9122,-0.9113,-0.9056,-0.9029,-0.9006,-0.8954,-0.8932,-0.8902,-0.8867,-0.8829,-0.8783,-0.8736,-0.8724,-0.8696,-0.8679,-0.8673,-0.8653,-0.8634,-0.865,-0.8648,-0.8647,-0.8641,-0.864,-0.8639,-0.8638,0,0,-0.921,-0.9125,-0.9123,-0.9095,-0.9033,-0.9008,-0.8981,-0.8935,-0.8916,-0.8875,-0.885,-0.8799,-0.8779,-0.875,-0.8717,-0.8702,-0.8706,-0.8683,-0.8681,-0.8688,-0.8681,-0.8697,-0.8697,-0.8686,-0.8686,-0.8686,-0.8685,0,-0.9223,-0.9174,-0.9129,-0.9095,-0.9065,-0.9017,-0.8993,-0.8952,-0.8917,-0.8885,-0.8845,-0.881,-0.8787,-0.8769,-0.8752,-0.8709,-0.8704,-0.8709,-0.866,-0.8659,-0.8674,-0.8697,-0.8713,-0.8715,-0.8684,-0.8684,-0.8684,0,-0.9232,-0.9192,-0.9156,-0.9094,-0.908,-0.9059,-0.9011,-0.8982,-0.8933,-0.8908,-0.8874,-0.8838,-0.8805,-0.8788,-0.874,-0.8744,-0.8721,-0.8697,-0.8696,-0.8689,-0.8673,-0.869,-0.8715,-0.8715,-0.8683,-0.8683,-0.8683,0,-0.9276,-0.9214,-0.9183,-0.9161,-0.9089,-0.9075,-0.9044,-0.8994,-0.8968,-0.8925,-0.8907,-0.8861,-0.8836,-0.88,-0.8752,-0.8745,-0.8708,-0.8688,-0.8685,-0.8686,-0.8679,-0.868,-0.87,-0.8666,-0.8666,-0.8666,-0.8666,0,-0.9295,-0.9274,-0.9202,-0.9183,-0.9156,-0.9104,-0.9079,-0.9043,-0.8999,-0.897,-0.8925,-0.8899,-0.8837,-0.8803,-0.8765,-0.8729,-0.8718,-0.8696,-0.8686,-0.87,-0.8702,-0.8684,-0.8682,-0.8666,-0.8666,-0.8666,-0.8666,0,-0.9341,-0.9292,-0.9255,-0.9188,-0.9171,-0.9155,-0.9097,-0.9075,-0.9036,-0.9001,-0.8989,-0.8928,-0.8885,-0.8833,-0.8773,-0.8747,-0.8714,-0.87,-0.8731,-0.8726,-0.8724,-0.8725,-0.8733,-0.873,-0.8699,-0.8699,-0.87,0,-0.9356,-0.9338,-0.927,-0.9247,-0.9218,-0.9183,-0.9155,-0.9102,-0.9075,-0.9015,-0.9,-0.8953,-0.8913,-0.8846,-0.8795,-0.8748,-0.8731,-0.8737,-0.8724,-0.8737,-0.873,-0.8731,-0.8728,-0.8741,-0.8742,-0.8742,-0.8743,0,-0.9387,-0.9363,-0.9326,-0.9279,-0.9248,-0.9208,-0.9167,-0.9151,-0.9088,-0.9059,-0.9015,-0.8984,-0.8921,-0.8875,-0.8821,-0.8786,-0.8753,-0.8747,-0.8743,-0.8757,-0.8775,-0.8764,-0.874,-0.8747,-0.8747,-0.8746,-0.8746,-0.8746,-0.9416,-0.9397,-0.9346,-0.9305,-0.9268,-0.9229,-0.9205,-0.9162,-0.9124,-0.907,-0.904,-0.8995,-0.8942,-0.8866,-0.8833,-0.8795,-0.8784,-0.8779,-0.8778,-0.8777,-0.8781,-0.8781,-0.8785,-0.8785,-0.8785,-0.8785,-0.8785,0,-0.9444,-0.9407,-0.937,-0.9313,-0.928,-0.9252,-0.9204,-0.9178,-0.9139,-0.9093,-0.9054,-0.9,-0.8954,-0.8898,-0.8848,-0.8828,-0.8811,-0.8817,-0.8817,-0.8809,-0.8795,-0.8802,-0.8831,-0.8831,-0.8831,-0.8831,-0.8831,-0.8831,-0.9454,-0.942,-0.9389,-0.9334,-0.9297,-0.9254,-0.9228,-0.9191,-0.9154,-0.9097,-0.9058,-0.9022,-0.8971,-0.8915,-0.8871,-0.8855,-0.8838,-0.8847,-0.8827,-0.8815,-0.8811,-0.8807,-0.8814,-0.8844,-0.8844,-0.8845,-0.8845,-0.8845]}]]